Location: Bakov nad Jizerou
(50.4784°N, 14.9394°E)
Time: 19:50:00
(UTC+00:00)

SL-8 R/B - Pass Details

Date: 28 October 2021
Orbit: 656 x 667 km, 48.4° (Epoch: 03 December)

Event Time Altitude Azimuth Distance (km) Brightness Sun altitude
Rises 16:25:59 0° 264° (W) 2,981 9.5 -7.4°
Reaches altitude 10° 16:28:20 10° 263° (W) 2,071 8.0 -7.8°
Maximum altitude 16:33:06 71° 180° (S) 700 3.9 -8.5°
Enters shadow 16:37:44 11° 97° (E) 2,025 5.6 -9.3°
